Location: Tauranga
(37.6860°S, 176.1670°E)
Time: 16:22:21
(UTC+12:00)

Cosmos 2227 - Pass Details

Date: 24 January 2019
Orbit: 832 x 863 km, 71.0° (Epoch: 20 April)

Event Time Altitude Azimuth Distance (km) Brightness Sun altitude
Rises 21:35:05 0° 202° (SSW) 3,440 8.4 -11.2°
Reaches altitude 10° 21:37:34 10° 201° (SSW) 2,493 7.6 -11.6°
Maximum altitude 21:43:18 85° 112° (ESE) 856 4.2 -12.5°
Enters shadow 21:48:12 14° 23° (NNE) 2,168 5.8 -13.3°
